Temp
6 7 8 10 11 12 12 12 12 12 12 12 12 12 12 12 12 12 13 16 15 15 14 13 11 11 11 12 12 13 17 18 19 18 20 16 18 16 16 18 17 17 18 18 16
5 6 6 8 10 12 12 12 12 12 12 12 12 12 12 12 12 13 17 15 15 14 13 12 11 11 12 13 13 16 17 18 19 19 18 17 17 17 17 17 17 16 17 18 18
4 4 4 5 9 11 11 12 12 12 12 12 12 12 12 12 11 15 15 15 15 13 13 12 11 12 13 12 13 15 17 19 16 16 15 16 16 16 18 18 19 17 17 17 17
3 4 4 6 10 11 11 11 11 11 11 11 10 8 9 9 14 15 15 15 14 10 10 10 11 12 14 13 14 13 15 15 15 13 14 16 15 16 16 19 17 16 17 16 16
2 2 3 6 10 10 11 11 11 11 11 11 7 4 5 6 11 15 15 15 13 11 10 10 11 13 14 14 13 13 16 14 14 12 13 12 15 16 15 16 16 15 15 16 15
1 3 4 8 10 10 10 10 10 10 10 9 6 3 3 6 12 12 13 12 12 13 10 11 12 13 14 13 14 14 14 14 12 12 13 13 15 13 16 16 15 14 14 14 14
1 2 4 6 9 9 10 10 9 9 9 8 3 3 3 10 11 11 11 9 10 12 10 11 12 11 12 12 11 12 13 13 13 13 14 12 14 14 15 16 14 15 14 14 14
0 1 5 7 8 9 9 9 9 9 8 8 4 3 3 8 9 9 9 9 9 9 9 10 10 12 12 10 11 12 13 14 17 13 13 13 17 17 14 15 15 15 14 13 13
-0 0 2 5 6 8 9 8 8 7 5 5 3 3 4 6 7 8 8 8 7 8 7 9 9 11 10 12 12 12 15 14 16 13 14 14 16 15 12 13 14 13 14 13 13
-1 0 2 3 4 6 7 6 6 4 4 3 3 3 4 6 5 6 7 7 7 8 7 8 10 11 11 12 12 13 12 14 14 12 11 12 14 13 11 12 13 13 14 14 14
-1 -1 0 2 2 2 3 5 4 4 3 5 4 4 4 4 6 5 6 6 8 8 8 8 9 9 12 12 13 16 15 15 13 11 11 13 14 14 14 12 14 14 14 12 12
-1 -1 0 1 2 2 2 1 -1 -2 1 3 2 2 3 3 3 6 5 7 8 8 9 9 8 11 12 12 11 12 13 13 12 10 10 13 12 13 13 13 9 8 8 8 8
-1 0 0 1 2 2 0 0 -0 -1 0 2 2 3 2 2 4 5 5 6 9 8 8 8 10 11 11 10 10 11 12 13 12 10 10 10 12 13 11 9 8 7 6 6 6
1 0 0 0 1 1 -0 0 -0 -0 2 3 3 2 2 2 4 2 2 4 8 8 9 8 11 9 10 10 10 10 12 12 10 10 10 11 13 13 11 9 8 6 6 6 6
1 0 0 0 1 -0 -0 0 0 -1 2 2 2 1 2 1 -1 2 -0 2 4 7 9 8 9 8 8 9 10 10 12 10 10 9 8 9 9 14 9 8 7 6 5 5 5
1 -0 0 0 1 -0 1 1 0 1 -0 0 1 1 2 2 2 1 0 -2 -1 3 3 6 9 9 8 9 10 9 8 10 9 7 6 10 10 11 8 5 5 5 4 4 4
1 0 0 -0 -1 1 1 1 1 -1 1 -1 0 1 1 1 1 1 -1 -1 -2 1 5 6 5 6 9 8 9 8 6 7 7 6 9 9 9 6 4 4 4 4 3 2 3
1 0 0 -1 -0 1 1 1 -2 -1 -1 1 1 1 -0 0 0 -0 -0 -1 -2 -2 -0 2 5 0 0 8 8 6 8 9 8 8 9 7 8 4 3 3 2 1 1 1 1
1 0 -0 -0 0 1 1 -1 -3 -2 -1 -0 0 -1 -1 0 -0 -1 -2 -2 -2 -2 -2 -2 2 0 -1 -1 2 6 6 10 9 7 10 5 2 3 3 2 1 -0 -0 -0 0
0 -1 -1 -1 0 0 1 -2 -2 -1 -1 -0 -2 -1 -2 -1 -1 -1 -2 -1 -1 -0 -1 -2 -1 -1 -1 -2 -1 1 5 5 6 6 7 4 3 2 1 -0 -0 -1 -2 -1 -1
-0 -1 -2 -0 -1 -1 -2 -2 -2 -2 -2 -1 -2 -2 -2 -2 -1 -2 -2 -2 -1 -1 0 -1 -2 -1 -1 -3 -3 -1 -0 1 7 7 9 5 -0 -2 -3 -2 -2 -2 -3 -3 -2
-2 -1 -3 -2 -1 -1 -3 -3 -2 -2 -2 -1 -1 -2 -3 -2 -2 -2 -2 -2 -2 -1 -1 -0 -2 -2 -2 -3 -3 -4 -4 -2 4 4 2 6 -2 -5 -5 -5 -4 -3 -3 -3 -3
-3 -3 -3 -3 -2 -2 -2 -2 -2 -2 -2 -2 -3 -2 -2 -3 -3 -2 -2 -1 -2 -1 -1 -0 -2 -2 -2 -2 -2 -4 -5 -5 -2 0 -2 2 -4 -6 -6 -6 -6 -5 -4 -4 -4
-3 -2 -3 -3 -5 -4 -5 -4 -4 -3 -3 -3 -3 -3 -3 -3 -2 -3 -3 -2 -2 -3 -2 -0 -3 -3 -4 -6 -5 -6 -6 -5 -4 -1 -3 -4 -6 -7 -7 -6 -7 -6 -5 -5 -4
-4 -4 -6 -4 -4 -4 -4 -5 -5 -5 -4 -4 -3 -4 -5 -4 -4 -4 -3 -3 -2 -4 -3 -2 -5 -6 -6 -7 -7 -8 -8 -6 -6 -6 -4 -6 -8 -9 -9 -8 -7 -7 -6 -6 -5
-4 -4 -6 -5 -5 -5 -5 -6 -6 -5 -5 -5 -5 -4 -4 -5 -5 -6 -5 -6 -7 -5 -5 -3 -4 -5 -6 -5 -6 -8 -8 -8 -8 -8 -8 -7 -7 -7 -8 -9 -8 -8 -7 -6 -7
-5 -5 -5 -6 -5 -5 -6 -6 -6 -6 -5 -5 -5 -5 -5 -6 -6 -6 -7 -7 -7 -7 -6 -5 -4 -3 -6 -5 -4 -7 -9 -8 -9 -10 -9 -9 -9 -8 -8 -9 -9 -9 -7 -8 -8
Height
1513 1510 1508 1505 1502 1500 1498 1496 1495 1494 1492 1490 1489 1487 1486 1485 1483 1481 1476 1480 1481 1480 1483 1485 1489 1493 1496 1498 1498 1500 1497 1489 1484 1488 1480 1487 1488 1491 1492 1495 1496 1497 1497 1498 1499
1511 1508 1505 1501 1499 1496 1494 1492 1491 1489 1488 1486 1485 1484 1483 1481 1479 1472 1472 1472 1474 1476 1478 1480 1485 1490 1494 1495 1497 1495 1491 1481 1480 1481 1482 1485 1487 1488 1491 1492 1493 1494 1495 1497 1499
1509 1505 1501 1498 1495 1492 1490 1488 1486 1484 1483 1481 1480 1478 1478 1478 1476 1464 1463 1463 1465 1470 1477 1480 1484 1487 1490 1492 1491 1489 1481 1477 1482 1483 1485 1485 1487 1487 1487 1488 1486 1490 1494 1496 1498
1506 1502 1498 1495 1491 1488 1486 1484 1482 1480 1478 1476 1475 1474 1473 1477 1473 1461 1462 1461 1462 1466 1472 1476 1481 1483 1483 1484 1484 1485 1480 1481 1480 1482 1484 1484 1484 1483 1484 1482 1484 1488 1491 1494 1495
1504 1500 1495 1491 1487 1484 1481 1479 1477 1474 1472 1471 1470 1470 1470 1471 1456 1459 1458 1459 1460 1464 1468 1470 1473 1475 1474 1476 1482 1480 1476 1479 1480 1482 1483 1483 1481 1482 1479 1481 1483 1485 1488 1491 1492
1501 1496 1491 1487 1483 1480 1477 1474 1472 1469 1467 1465 1465 1466 1468 1466 1452 1454 1454 1454 1455 1458 1464 1468 1469 1473 1472 1472 1473 1472 1475 1477 1479 1480 1481 1482 1480 1484 1471 1477 1479 1481 1483 1486 1488
1498 1493 1487 1482 1477 1474 1470 1468 1465 1462 1461 1459 1460 1461 1461 1446 1447 1448 1449 1451 1454 1455 1455 1460 1466 1469 1469 1471 1471 1473 1473 1475 1474 1477 1477 1481 1476 1470 1466 1473 1473 1475 1478 1480 1482
1495 1489 1484 1478 1473 1468 1465 1462 1458 1456 1454 1452 1455 1457 1448 1440 1440 1441 1443 1445 1448 1453 1458 1462 1463 1466 1466 1468 1472 1471 1472 1464 1457 1471 1473 1476 1455 1461 1464 1466 1467 1471 1473 1474 1475
1493 1486 1480 1474 1468 1462 1458 1455 1452 1449 1448 1448 1452 1453 1443 1436 1434 1435 1437 1441 1445 1451 1455 1457 1461 1461 1465 1462 1465 1464 1448 1456 1456 1464 1465 1467 1454 1459 1462 1464 1466 1467 1469 1469 1470
1490 1483 1476 1471 1464 1458 1453 1450 1447 1447 1447 1449 1450 1454 1439 1437 1434 1433 1432 1435 1442 1447 1453 1455 1455 1452 1451 1449 1430 1443 1459 1449 1452 1460 1465 1463 1456 1462 1464 1465 1465 1465 1466 1467 1467
1487 1480 1473 1467 1460 1455 1451 1448 1451 1449 1446 1444 1443 1438 1438 1435 1433 1433 1432 1433 1438 1440 1437 1445 1447 1427 1420 1430 1436 1431 1436 1440 1452 1459 1460 1454 1455 1457 1460 1463 1462 1462 1463 1463 1462
1484 1477 1472 1466 1460 1457 1453 1451 1456 1455 1447 1441 1439 1439 1436 1436 1434 1432 1433 1433 1430 1423 1434 1437 1423 1418 1432 1435 1438 1438 1437 1437 1450 1460 1460 1452 1454 1456 1461 1462 1466 1467 1465 1462 1459
1481 1475 1470 1465 1461 1458 1455 1454 1453 1451 1450 1441 1440 1439 1437 1435 1432 1429 1431 1425 1421 1420 1416 1416 1399 1423 1425 1430 1434 1431 1431 1437 1444 1457 1458 1459 1447 1448 1458 1463 1467 1468 1467 1464 1460
1480 1473 1468 1464 1461 1457 1455 1453 1452 1451 1443 1442 1442 1443 1439 1432 1431 1431 1426 1427 1415 1409 1413 1415 1408 1416 1418 1421 1427 1426 1430 1438 1448 1451 1452 1454 1437 1441 1452 1460 1464 1466 1465 1462 1458
1478 1472 1467 1462 1460 1456 1454 1448 1448 1449 1436 1450 1448 1447 1442 1440 1439 1430 1427 1421 1416 1409 1409 1394 1404 1409 1415 1414 1422 1419 1428 1435 1443 1449 1456 1454 1456 1428 1451 1455 1462 1464 1465 1462 1458
1477 1471 1465 1461 1457 1453 1448 1445 1447 1445 1448 1454 1453 1448 1442 1439 1437 1433 1430 1425 1422 1415 1411 1406 1402 1404 1406 1415 1420 1427 1433 1435 1439 1452 1456 1437 1447 1435 1452 1465 1465 1468 1467 1464 1461
1475 1471 1465 1460 1455 1450 1447 1446 1447 1456 1463 1462 1456 1450 1447 1442 1438 1437 1435 1435 1437 1423 1404 1402 1404 1406 1403 1409 1416 1421 1430 1429 1436 1439 1419 1428 1441 1455 1470 1472 1473 1472 1470 1468 1463
1475 1472 1467 1461 1454 1449 1447 1450 1461 1469 1466 1463 1458 1453 1452 1447 1443 1442 1438 1439 1444 1439 1431 1419 1401 1418 1415 1395 1401 1412 1408 1401 1410 1414 1413 1438 1431 1462 1475 1477 1477 1476 1473 1470 1465
1477 1472 1467 1462 1456 1450 1452 1460 1477 1475 1473 1466 1459 1456 1454 1451 1449 1446 1449 1451 1450 1447 1442 1436 1416 1423 1421 1418 1416 1403 1404 1397 1404 1414 1405 1438 1469 1471 1474 1478 1479 1478 1475 1471 1467
1479 1474 1470 1468 1463 1459 1459 1472 1480 1481 1476 1469 1467 1465 1462 1457 1453 1451 1453 1454 1451 1447 1446 1442 1432 1427 1425 1424 1419 1415 1406 1407 1410 1410 1405 1434 1454 1461 1476 1482 1483 1481 1479 1475 1470
1481 1479 1478 1473 1469 1467 1474 1483 1483 1483 1479 1475 1473 1469 1469 1466 1460 1458 1459 1456 1454 1448 1444 1443 1440 1432 1431 1444 1441 1425 1425 1418 1395 1396 1379 1420 1469 1486 1489 1489 1488 1486 1483 1479 1472
1487 1487 1487 1479 1474 1482 1487 1490 1489 1486 1483 1481 1479 1474 1474 1469 1465 1461 1461 1459 1458 1453 1446 1443 1443 1438 1443 1449 1448 1448 1450 1437 1399 1408 1420 1402 1476 1498 1497 1495 1492 1487 1484 1480 1475
1493 1495 1492 1486 1487 1491 1494 1493 1491 1489 1487 1484 1483 1481 1479 1475 1470 1466 1464 1463 1460 1455 1451 1446 1446 1438 1441 1442 1445 1453 1457 1451 1436 1428 1447 1424 1483 1501 1499 1496 1493 1488 1483 1479 1475
1495 1497 1499 1498 1503 1501 1500 1498 1495 1493 1491 1489 1488 1484 1479 1476 1474 1472 1468 1465 1463 1461 1455 1448 1454 1450 1460 1473 1470 1474 1468 1456 1447 1436 1461 1472 1490 1500 1497 1494 1492 1488 1484 1480 1475
1501 1510 1510 1508 1505 1506 1504 1504 1501 1498 1496 1493 1488 1489 1489 1481 1478 1475 1472 1470 1465 1465 1460 1458 1470 1472 1481 1481 1479 1483 1479 1475 1472 1477 1469 1488 1499 1506 1504 1500 1496 1492 1486 1480 1476
1508 1511 1512 1514 1512 1509 1509 1507 1505 1503 1500 1497 1496 1494 1491 1489 1487 1486 1481 1482 1486 1474 1469 1467 1470 1476 1484 1480 1481 1488 1494 1494 1491 1496 1500 1500 1499 1507 1505 1501 1496 1493 1488 1482 1477
1511 1513 1513 1520 1516 1512 1515 1512 1509 1506 1502 1502 1500 1496 1496 1498 1495 1494 1492 1492 1491 1485 1478 1474 1470 1468 1482 1480 1475 1493 1517 1511 1513 1515 1515 1515 1513 1506 1498 1499 1499 1494 1489 1484 1479
Wind_Speed
16 17 18 19 19 19 19 19 19 20 20 20 20 19 19 20 21 24 25 17 10 18 13 24 23 19 16 11 7 7 6 9 8 8 3 7 10 6 6 7 11 13 5 5 14
18 19 19 19 19 18 18 19 18 19 19 20 20 21 22 22 24 32 29 26 24 19 22 28 25 21 12 12 10 10 7 11 5 7 2 6 9 9 7 14 11 11 11 11 16
19 19 20 20 20 20 20 20 19 20 21 21 20 19 19 17 20 16 6 8 18 25 22 23 23 20 13 12 14 10 9 14 7 8 5 5 7 8 10 11 19 18 16 15 17
21 21 22 23 22 21 21 21 21 21 21 21 20 17 17 8 7 4 5 3 12 26 26 24 26 17 11 11 20 7 19 9 5 8 6 5 3 6 14 7 6 10 15 16 16
22 23 24 25 24 24 24 23 22 22 21 20 16 12 11 9 25 19 15 14 6 27 29 29 30 23 16 14 14 19 11 15 17 4 8 4 11 9 16 20 10 9 10 13 16
25 25 25 25 23 22 23 23 24 24 22 19 15 10 9 11 19 12 18 21 20 24 29 28 21 19 15 9 19 11 23 8 7 11 11 10 11 5 19 20 20 15 17 17 18
27 28 28 28 27 25 25 23 22 21 22 20 13 13 15 27 18 14 18 19 21 26 30 32 16 21 11 6 8 7 5 11 17 14 5 8 15 20 32 17 15 18 18 17 21
28 29 28 27 28 26 26 24 24 22 20 17 13 14 15 22 20 29 21 24 25 25 19 25 20 19 9 8 7 8 7 14 13 15 9 14 19 4 9 22 26 23 21 20 21
30 31 32 29 29 29 28 25 22 16 7 5 13 12 11 12 13 12 24 20 19 22 18 15 22 15 10 12 9 11 14 18 10 14 8 20 14 1 0 6 6 6 9 11 13
32 33 32 30 26 24 22 18 12 4 4 4 5 8 12 3 6 4 5 21 16 22 17 16 16 15 17 18 20 16 15 17 17 9 13 16 17 4 6 1 6 9 12 14 16
32 31 32 32 28 18 20 9 2 2 8 7 4 8 4 9 5 1 5 13 20 24 19 21 17 28 34 29 22 19 23 16 7 5 10 17 16 16 12 11 13 15 17 20 22
31 26 31 33 13 20 13 7 8 8 11 13 18 17 20 17 13 13 4 15 21 25 25 16 28 28 20 24 23 21 19 20 6 5 6 9 13 11 10 9 6 8 13 17 21
31 28 27 33 11 24 10 12 15 4 6 6 2 10 8 13 6 7 15 14 18 22 25 27 27 26 23 20 25 27 25 15 12 7 6 6 15 13 4 12 6 10 10 12 15
32 31 26 31 11 22 8 15 14 2 4 7 9 10 14 13 5 10 13 14 15 24 24 18 29 11 27 27 24 27 22 20 15 6 7 7 8 7 12 8 10 14 16 17 17
30 27 25 24 21 16 22 18 4 5 4 9 8 8 13 12 13 4 17 6 14 16 17 21 20 23 19 26 24 23 16 21 19 15 7 13 7 9 7 4 9 14 18 19 19
28 23 26 23 22 24 21 3 6 3 2 10 11 13 17 15 9 16 11 9 4 12 9 17 6 18 24 17 18 9 8 14 15 8 9 19 15 8 1 4 7 11 17 19 20
26 15 27 25 28 20 12 1 1 5 9 12 14 13 14 15 12 15 8 15 10 3 18 10 6 4 12 24 21 20 16 7 8 7 10 12 12 8 6 7 9 11 16 19 20
26 16 23 25 24 15 7 5 10 5 13 12 8 11 12 16 10 14 5 7 14 11 3 4 9 6 17 7 16 20 21 9 19 12 16 8 9 7 8 11 14 15 17 19 22
19 24 25 23 19 9 14 12 7 9 12 12 10 9 11 16 9 6 11 11 10 13 6 6 2 7 8 8 2 9 16 20 2 3 11 9 8 8 9 11 16 20 22 24 25
18 16 25 23 18 20 16 13 6 12 9 9 10 10 12 15 14 10 9 11 13 12 8 7 5 8 6 9 10 3 3 8 5 11 11 7 9 10 7 10 13 18 23 25 25
22 10 28 10 20 21 9 7 7 17 12 10 11 8 11 10 10 9 10 2 17 14 7 7 2 6 4 9 17 8 4 5 4 4 12 9 6 7 9 11 13 16 21 24 25
18 8 25 19 17 10 9 5 9 12 14 7 11 9 9 10 8 8 10 11 18 12 9 6 3 4 7 8 14 18 11 5 1 7 3 4 6 8 10 12 16 19 23 24 23
5 7 27 20 8 8 8 14 6 12 14 9 13 9 9 7 4 9 10 10 17 15 11 9 4 1 5 3 14 11 17 17 3 1 6 2 6 8 13 15 19 21 26 27 25
5 3 9 19 16 8 5 13 12 9 10 14 12 6 8 6 6 7 11 7 11 18 17 6 8 10 9 11 12 10 21 23 10 5 7 9 13 14 18 18 23 25 27 27 25
7 4 4 6 11 14 5 12 14 11 9 16 7 15 12 5 8 7 9 10 8 19 13 5 10 20 17 20 25 23 23 21 22 17 9 9 12 15 17 18 22 24 25 25 28
6 3 4 9 21 11 14 13 13 14 6 9 9 11 12 8 4 4 6 8 9 10 9 7 6 14 13 19 26 24 24 20 15 17 14 10 6 16 22 22 24 24 22 25 31
9 9 5 15 10 9 11 11 11 12 4 8 10 4 9 8 13 16 19 18 15 9 10 4 2 4 7 4 8 10 19 15 12 15 10 11 12 20 20 25 27 24 20 28 31
Wind_Direction
336 332 326 319 316 313 311 308 305 301 294 289 286 283 281 282 283 281 269 271 264 228 213 193 184 185 177 182 170 173 228 234 230 202 204 159 193 181 202 186 191 194 183 179 174
345 337 331 326 321 313 310 306 302 299 296 293 291 290 288 287 289 279 287 269 251 228 204 187 177 171 180 187 181 194 221 222 224 206 229 183 203 182 187 194 204 197 195 177 177
345 339 332 326 319 314 308 305 302 297 293 290 287 282 280 289 303 286 250 257 234 218 209 188 175 168 184 181 190 200 222 219 218 211 218 203 206 190 203 212 217 203 196 193 191
342 336 332 325 320 316 312 310 306 301 297 293 287 282 279 274 258 241 261 246 221 194 187 175 176 179 188 192 197 207 234 208 183 196 182 206 199 214 216 213 195 183 193 198 203
340 335 331 326 322 317 313 311 307 301 296 290 281 272 270 241 245 242 254 271 202 193 190 186 184 195 196 201 187 225 232 228 232 211 212 214 227 234 239 230 215 185 198 207 217
339 335 329 325 320 315 312 310 307 302 296 288 275 238 230 251 264 257 245 245 231 193 192 192 201 198 206 201 201 216 234 229 209 223 227 229 240 227 248 241 240 231 234 230 229
339 334 330 325 321 316 311 309 304 298 293 285 257 221 228 249 254 240 221 212 214 208 193 198 194 189 183 180 203 191 210 227 234 221 229 212 251 233 246 246 247 243 244 243 242
338 335 333 326 319 314 309 309 306 300 288 277 225 207 243 266 252 236 218 211 211 207 206 205 199 199 202 133 158 206 226 229 198 193 209 190 250 201 251 238 249 250 256 257 254
340 338 338 340 328 317 307 307 307 298 295 242 200 207 261 266 272 263 237 223 210 205 205 206 197 205 179 187 201 200 233 225 216 203 192 201 250 186 177 189 226 234 250 260 261
342 342 346 349 337 319 310 314 304 176 179 155 199 203 255 313 299 272 267 206 189 198 197 194 198 207 211 204 214 193 218 223 216 185 207 212 232 179 161 324 285 281 275 273 277
344 345 351 352 338 350 354 357 13 219 213 225 215 254 332 325 311 264 278 189 197 192 197 195 200 213 207 209 222 220 222 226 205 173 213 228 236 233 243 285 284 288 301 299 290
348 347 354 358 6 4 358 60 21 307 303 271 277 284 293 291 271 268 281 194 197 206 200 194 220 222 225 220 225 228 229 223 170 181 215 232 250 231 242 265 356 346 331 319 311
349 347 344 356 337 350 349 17 359 345 274 313 352 5 350 327 286 306 252 223 218 214 199 206 225 218 216 218 216 223 222 204 224 164 214 275 263 234 107 93 63 28 1 344 327
350 347 338 349 353 346 333 322 336 268 270 35 12 17 343 333 225 349 350 248 224 228 215 221 228 196 215 219 211 226 214 226 199 204 223 188 260 163 153 99 48 24 11 0 351
354 353 351 347 338 348 325 320 296 185 254 16 2 335 342 25 327 65 339 288 249 233 208 225 215 220 222 222 215 235 217 211 221 225 226 211 245 189 161 161 27 20 14 11 5
356 360 356 356 354 342 336 299 159 218 22 4 345 347 1 7 12 342 8 22 350 259 258 253 233 214 210 218 206 154 167 205 205 190 220 218 211 150 138 33 30 20 20 16 13
355 343 359 1 348 348 355 42 182 33 353 349 343 354 7 359 18 8 23 45 24 318 241 245 211 262 209 202 201 183 160 179 181 202 226 184 193 68 81 56 42 25 20 17 16
1 357 7 7 350 356 36 72 58 20 9 351 356 8 21 5 8 17 37 37 19 7 323 299 211 357 353 223 204 201 183 194 203 196 205 155 206 131 91 71 55 35 21 18 16
13 24 29 22 17 34 77 57 32 10 341 344 356 2 8 10 346 17 54 30 19 6 358 349 202 356 24 348 314 168 208 209 155 347 184 137 106 111 103 60 34 23 15 12 8
22 31 28 36 62 65 71 76 64 20 343 352 12 16 357 0 6 17 30 14 1 4 349 354 295 7 19 357 4 323 182 172 219 177 191 143 150 132 82 28 17 11 5 0 1
45 39 11 32 54 55 55 50 34 18 18 20 7 2 355 358 1 28 13 337 1 345 334 334 303 349 70 36 24 18 13 325 204 247 198 153 111 53 52 24 7 1 357 353 354
49 54 14 50 59 40 39 8 13 13 22 31 23 3 354 358 8 18 11 5 357 344 349 17 333 53 87 116 69 44 16 353 269 136 52 66 110 44 26 13 1 355 352 350 350
59 49 32 46 49 46 42 33 32 16 25 14 17 3 355 356 352 12 0 9 7 9 3 333 25 230 184 170 48 35 16 13 328 141 31 144 130 42 21 14 1 352 349 347 347
53 37 16 40 48 23 1 15 10 13 31 6 26 10 357 1 354 347 358 355 347 4 0 22 29 52 81 69 66 40 25 26 33 44 87 55 87 10 8 1 351 348 345 342 343
52 61 25 14 14 24 22 8 12 6 358 17 13 19 13 337 352 0 357 345 357 6 3 43 86 94 92 84 68 48 31 28 42 37 42 90 76 11 353 342 337 337 342 345 343
72 50 59 16 21 22 12 9 8 353 352 7 9 3 24 33 352 331 354 19 22 327 358 359 106 102 91 100 72 50 30 26 36 28 43 50 71 359 340 337 337 341 342 344 336
67 66 80 17 23 22 12 355 348 351 16 25 346 359 53 58 76 83 85 76 55 23 355 21 129 190 168 227 343 34 13 21 69 48 32 20 347 346 346 336 331 330 344 339 333